User: anonymous
Location: Unspecified
(0.0000°N, 0.0000°E)
Time: 19:04:12
(UTC+00:00)
Language:

AEHF 1 (USA 214) - Orbit

View from above orbital plane
View from above orbital plane
View from above satellite
View from above satellite

Ground track
Ground track

The orbit data is extracted from the following two-line orbital elements,

1 36868U 10039A   14078.44292156 0.00000000  00000-0  00000-0 0    00
2 36868   2.5169 268.3060 0003453 146.9169 213.1206  1.00270000    07
Epoch (UTC): 19 March 2014 10:37:48
Eccentricity: 0.0003453
inclination: 2.5169°
perigee height: 35772 km
apogee height: 35801 km
right ascension of ascending node: 268.3060°
argument of perigee: 146.9169°
revolutions per day: 1.00270000
mean anomaly at epoch: 213.1206°
orbit number at epoch: 0

The dashed part of the orbit path shows where the satellite is in the earth's shadow,  

DLR